Weather History for Fuerteventura, Canary Islands

Change the Weather History Date:

Sunday, October 21, 2012

  Actual Average Record
Temperature  
Mean Temperature 68 °F -  
Max Temperature 73 °F 74 °F 84 °F (2003)
Min Temperature 62 °F 64 °F 62 °F (2012)
Cooling Degree Days 2    
Growing Degree Days 18 (Base 50)    
Moisture  
Dew Point 56 °F    
Average Humidity 62    
Maximum Humidity 73    
Minimum Humidity 53    
Precipitation  
Precipitation 0.00 in - - ()
Sea Level Pressure  
Sea Level Pressure 30.00 in    
Wind  
Wind Speed 5 mph ()    
Max Wind Speed 8 mph    
Max Gust Speed 18 mph    
Visibility 6.2 miles    
Events      
Averages and records for this station are not official NWS values.
T = Trace of Precipitation, MM = Missing Value Source: Averaged Metar Reports

Daily Weather History Graph

Daily Weather History Graph

Search for Another Location

Airport:

Trip Planner

Search our weather history database for the weather conditions in past years. The results will help you decide how hot, cold, wet, or windy it might be!

Date:

Astronomy

Oct. 21, 2012 Rise Set
Actual Time 8:00 AM WEST 7:19 PM WEST
Civil Twilight 7:36 AM WEST 7:43 PM WEST
Nautical Twilight 7:08 AM WEST 8:11 PM WEST
Astronomical Twilight 6:41 AM WEST 8:38 PM WEST
Moon 2:01 PM WEST (10/21) 12:05 AM WEST (10/21)
Length of Visible Light 12h 07m
Length of Day
11h 19m
Waxing Crescent, 42% of the Moon is Illuminated
Oct 21
Waxing Crescent
Oct 22
First Quarter
Oct 29
Full
Nov 7
Last Quarter
Nov 13
New

Hourly Weather History & Observations

Time (WEST) Temp. Dew Point Humidity Pressure Visibility Wind Dir Wind Speed Gust Speed Precip Events Conditions
6:00 AM 64.4 °F 53.6 °F 68% 29.98 in 6.2 mi WNW 5.8 mph - N/A   Partly Cloudy
6:30 AM 64.4 °F 53.6 °F 68% 29.98 in 6.2 mi WNW 6.9 mph - N/A   Partly Cloudy
7:00 AM 62.6 °F 51.8 °F 68% 29.98 in 6.2 mi NW 8.1 mph - N/A   Partly Cloudy
7:30 AM 62.6 °F 53.6 °F 72% 29.98 in 6.2 mi WNW 8.1 mph - N/A   Partly Cloudy
8:00 AM 62.6 °F 53.6 °F 72% 29.98 in 6.2 mi WNW 6.9 mph - N/A   Partly Cloudy
8:30 AM 64.4 °F 53.6 °F 68% 30.01 in 6.2 mi WNW 8.1 mph - N/A   Partly Cloudy
9:00 AM 64.4 °F 55.4 °F 73% 30.01 in 6.2 mi WNW 5.8 mph 18.4 mph N/A   Partly Cloudy
9:30 AM 68.0 °F 55.4 °F 64% 30.01 in 6.2 mi NW 4.6 mph 16.1 mph N/A   Partly Cloudy
10:00 AM 71.6 °F 55.4 °F 57% 30.04 in 6.2 mi North 4.6 mph - N/A   Partly Cloudy
10:30 AM 71.6 °F 55.4 °F 57% 30.04 in 6.2 mi NE 3.5 mph - N/A   Partly Cloudy
11:00 AM 71.6 °F 55.4 °F 57% 30.04 in 6.2 mi NE 4.6 mph - N/A   Partly Cloudy
12:00 PM 73.4 °F 55.4 °F 53% 30.04 in 6.2 mi ENE 5.8 mph - N/A   Partly Cloudy
12:30 PM 73.4 °F 55.4 °F 53% 30.01 in 6.2 mi ENE 5.8 mph - N/A   Partly Cloudy
1:00 PM 73.4 °F 55.4 °F 53% 30.01 in 6.2 mi East 6.9 mph - N/A   Partly Cloudy
1:30 PM 73.4 °F 55.4 °F 53% 30.01 in 6.2 mi East 6.9 mph - N/A   Partly Cloudy
2:00 PM 73.4 °F 57.2 °F 57% 30.01 in 6.2 mi East 6.9 mph - N/A   Partly Cloudy
2:30 PM 73.4 °F 55.4 °F 53% 29.98 in 6.2 mi ENE 8.1 mph - N/A   Partly Cloudy
3:00 PM 73.4 °F 55.4 °F 53% 29.98 in 6.2 mi East 8.1 mph - N/A   Partly Cloudy
3:30 PM 73.4 °F 55.4 °F 53% 29.98 in 6.2 mi ESE 8.1 mph - N/A   Partly Cloudy
4:00 PM 73.4 °F 57.2 °F 57% 29.98 in 6.2 mi ESE 6.9 mph - N/A   Partly Cloudy
4:30 PM 73.4 °F 57.2 °F 57% 29.98 in 6.2 mi ESE 6.9 mph - N/A   Partly Cloudy
5:00 PM 73.4 °F 59.0 °F 61% 29.98 in 6.2 mi ESE 6.9 mph - N/A   Partly Cloudy
5:30 PM 71.6 °F 59.0 °F 64% 29.98 in 6.2 mi ESE 6.9 mph - N/A   Partly Cloudy
6:00 PM 71.6 °F 59.0 °F 64% 29.98 in 6.2 mi SE 5.8 mph - N/A   Partly Cloudy
6:30 PM 71.6 °F 59.0 °F 64% 29.98 in 6.2 mi ESE 3.5 mph - N/A   Partly Cloudy
7:00 PM 71.6 °F 57.2 °F 60% 29.98 in 6.2 mi ESE 3.5 mph - N/A   Partly Cloudy
7:30 PM 69.8 °F 57.2 °F 64% 29.98 in 6.2 mi Variable 2.3 mph - N/A   Partly Cloudy
8:00 PM 69.8 °F 57.2 °F 64% 29.98 in 6.2 mi East 3.5 mph - N/A   Partly Cloudy
8:30 PM 69.8 °F 57.2 °F 64% 29.98 in 6.2 mi Variable 2.3 mph - N/A   Partly Cloudy
9:30 PM 69.8 °F 57.2 °F 64% 30.01 in 6.2 mi Variable 2.3 mph - N/A   Partly Cloudy
10:00 PM 68.0 °F 57.2 °F 68% 30.01 in 6.2 mi Variable 2.3 mph - N/A   Partly Cloudy
10:30 PM 68.0 °F 57.2 °F 68% 30.01 in 6.2 mi Variable 1.2 mph - N/A   Partly Cloudy